M I D A S
Marine Information and Data Acquisition System
Tripno 1998 of the Zeeleeuw from 2010-11-29 08:01:01 to 2010-11-29 15:53:27
Back to CruiseResearch ActivitiesStationsMapUnderway DataData graphs

EquipmentUnitsComments
TimeDGPSUTC
LatitudeDGPSDM.mWGS84
LongitudeDGPSDM.mWGS84
SpeedMeteo Stationm/sRelative wind speed
DirectionMeteo StationdegRelative wind direction
TemperatureMeteo Stationdeg CelciusAir temperature
PressureMeteo StationPaAtmospheric pressure
HumidityMeteo Station%Relative humidity
Missing or incorrect values are displayed as -999
Metereological data collected by the RV Zeeleeuw from 2010-11-29 07:42:19 to 2010-11-29 16:04:58
Time Latitude Longitude Speed Direction Temperature Pressure Humidity
2010-11-29 07:43 51°13.662 2°55.96 -999 318 -2.8 100780 37
2010-11-29 07:44 51°13.662 2°55.959 -999 330 -2.8 100780 37
2010-11-29 07:45 51°13.662 2°55.958 -999 329 -2.8 100790 37
2010-11-29 07:46 51°13.662 2°55.959 -999 331 -2.8 100790 38
2010-11-29 07:47 51°13.662 2°55.96 -999 320 -2.8 100790 38
2010-11-29 07:48 51°13.662 2°55.959 -999 324 -2.8 100790 37
2010-11-29 07:49 51°13.663 2°55.96 -999 319 -2.8 100790 38
2010-11-29 07:50 51°13.662 2°55.96 -999 327 -2.8 100790 38
2010-11-29 07:51 51°13.662 2°55.96 -999 324 -2.8 100790 38
2010-11-29 07:52 51°13.661 2°55.96 -999 321 -2.7 100790 38
2010-11-29 07:53 51°13.661 2°55.959 -999 320 -2.7 100790 38
2010-11-29 07:54 51°13.662 2°55.96 -999 327 -2.7 100800 38
2010-11-29 07:55 51°13.664 2°55.951 -999 331 -2.7 100800 37
2010-11-29 07:56 51°13.679 2°55.878 -999 343 -2.7 100800 38
2010-11-29 07:57 51°13.689 2°55.777 -999 342 -2.7 100800 38
2010-11-29 07:58 51°13.693 2°55.73 1.7 345 -2.7 100800 38
2010-11-29 07:59 51°13.7 2°55.732 1.2 20 -2.7 100800 38
2010-11-29 08:00 51°13.705 2°55.72 0.2 11 -2.6 100800 38
2010-11-29 08:01 51°13.776 2°55.667 -999 1 -2.6 100790 38
2010-11-29 08:01 51°13.81 2°55.644 -999 342 -2.6 100790 38
2010-11-29 08:03 51°13.81 2°55.644 -999 353 -2.5 100800 38
2010-11-29 08:04 51°14.153 2°55.382 0.5 355 -2.5 100790 36
2010-11-29 08:05 51°14.297 2°55.249 2.9 353 -2.5 100790 36
2010-11-29 08:06 51°14.441 2°55.103 2.5 359 -2.5 100790 37
2010-11-29 08:07 51°14.587 2°54.942 -999 358 -2.4 100790 38
2010-11-29 08:08 51°14.747 2°54.754 -999 3 -2.3 100790 38
2010-11-29 08:09 51°14.92 2°54.562 -999 3 -2.2 100790 38
2010-11-29 08:10 51°15.107 2°54.365 -999 359 -2.1 100790 38
2010-11-29 08:11 51°15.283 2°54.165 -999 -999 -2 100800 38
2010-11-29 08:12 51°15.46 2°53.96 -999 6 -1.8 100800 39
2010-11-29 08:13 51°15.639 2°53.756 -999 357 -1.7 100790 39
2010-11-29 08:14 51°15.82 2°53.552 -999 359 -1.6 100800 39
2010-11-29 08:15 51°16.012 2°53.363 -999 4 -1.5 100800 39
2010-11-29 08:16 51°16.206 2°53.199 -999 358 -1.3 100800 39
2010-11-29 08:17 51°16.403 2°53.03 -999 360 -1.2 100800 39
2010-11-29 08:18 51°16.595 2°52.867 -999 1 -1 100780 40
2010-11-29 08:19 51°16.795 2°52.697 -999 359 -0.9 100790 39
2010-11-29 08:20 51°16.991 2°52.532 -999 356 -0.8 100810 39
2010-11-29 08:21 51°17.187 2°52.364 -999 2 -0.6 100780 40
2010-11-29 08:22 51°17.384 2°52.19 -999 358 -0.4 100780 40
2010-11-29 08:23 51°17.57 2°51.994 -999 360 -0.3 100790 40
2010-11-29 08:24 51°17.759 2°51.804 5.5 -999 -0.2 100790 40
2010-11-29 08:25 51°17.95 2°51.613 5.4 358 -0.1 100780 39
2010-11-29 08:26 51°18.138 2°51.418 6 7 -999 100770 38
2010-11-29 08:27 51°18.325 2°51.224 4.5 358 -999 100780 40
2010-11-29 08:28 51°18.512 2°51.029 4.8 3 0.2 100790 38
2010-11-29 08:29 51°18.699 2°50.833 5.9 7 0.3 100800 38
2010-11-29 08:30 51°18.886 2°50.636 6.1 3 0.3 100800 40
2010-11-29 08:31 51°19.071 2°50.441 5 4 0.3 100790 38
2010-11-29 08:32 51°19.255 2°50.242 6.5 2 0.3 100800 38
2010-11-29 08:33 51°19.44 2°50.037 4.8 11 0.4 100790 39
2010-11-29 08:34 51°19.62 2°49.84 5.5 4 0.4 100790 38
2010-11-29 08:35 51°19.8 2°49.638 6.4 10 0.6 100780 40
2010-11-29 08:36 51°19.99 2°49.458 8.3 358 0.6 100790 40
2010-11-29 08:37 51°20.199 2°49.337 6.1 4 0.6 100800 38
2010-11-29 08:38 51°20.411 2°49.236 8.5 357 0.7 100800 40
2010-11-29 08:39 51°20.63 2°49.286 9.7 349 0.8 100770 40
2010-11-29 08:40 51°20.844 2°49.399 10.7 354 0.8 100770 40
2010-11-29 08:41 51°21.055 2°49.516 10.9 351 0.8 100760 39
2010-11-29 08:42 51°21.27 2°49.632 11.6 354 0.7 100770 39
2010-11-29 08:43 51°21.494 2°49.691 10.6 354 0.8 100780 40
2010-11-29 08:44 51°21.721 2°49.669 5.4 3 0.7 100780 40
2010-11-29 08:45 51°21.924 2°49.523 4 13 0.8 100790 39
2010-11-29 08:46 51°22.066 2°49.257 4.7 21 0.8 100810 39
2010-11-29 08:47 51°22.205 2°48.985 4.3 23 0.9 100800 39
2010-11-29 08:48 51°22.349 2°48.722 5.2 21 0.8 100830 38
2010-11-29 08:49 51°22.495 2°48.455 4.7 19 0.8 100810 38
2010-11-29 08:50 51°22.636 2°48.191 5 18 0.9 100800 38
2010-11-29 08:51 51°22.794 2°47.931 6.9 10 0.9 100810 39
2010-11-29 08:52 51°22.941 2°47.673 6.4 14 0.9 100810 41
2010-11-29 08:53 51°23.087 2°47.401 4.9 21 1 100810 38
2010-11-29 08:54 51°23.225 2°47.132 4.9 9 1.1 100810 38
2010-11-29 08:55 51°23.367 2°46.858 5 15 1.1 100800 39
2010-11-29 08:56 51°23.511 2°46.578 3.4 16 1 100810 41
2010-11-29 08:57 51°23.643 2°46.3 6.5 9 1.2 100810 40
2010-11-29 08:58 51°23.779 2°46.011 4.3 20 1.2 100800 41
2010-11-29 08:59 51°23.906 2°45.728 5.9 9 1.2 100810 41
2010-11-29 09:00 51°24.042 2°45.439 3.2 18 1.2 100810 39
2010-11-29 09:01 51°24.167 2°45.156 1.5 23 1.3 100810 39
2010-11-29 09:02 51°24.282 2°44.85 4.4 12 1.4 100820 41
2010-11-29 09:03 51°24.365 2°44.606 2.5 29 1.3 100830 41
2010-11-29 09:04 51°24.431 2°44.417 4.4 35 1.4 100820 41
2010-11-29 09:05 51°24.476 2°44.232 0.3 26 1.4 100810 39
2010-11-29 09:06 51°24.493 2°44.053 -999 26 1.5 100820 40
2010-11-29 09:07 51°24.533 2°43.905 2.5 41 1.5 100820 39
2010-11-29 09:08 51°24.575 2°43.805 5.5 36 1.4 100800 41
2010-11-29 09:09 51°24.613 2°43.737 5.1 34 1.5 100820 41
2010-11-29 09:10 51°24.648 2°43.698 6.2 21 1.5 100810 39
2010-11-29 09:11 51°24.693 2°43.694 6.5 8 1.5 100810 39
2010-11-29 09:12 51°24.692 2°43.683 5.6 11 1.5 100810 41
2010-11-29 09:13 51°24.656 2°43.679 6.1 34 1.5 100810 39
2010-11-29 09:14 51°24.63 2°43.697 5.2 37 1.5 100820 41
2010-11-29 09:15 51°24.663 2°43.676 5.9 14 1.5 100820 38
2010-11-29 09:16 51°24.708 2°43.696 5.9 351 1.5 100810 38
2010-11-29 09:17 51°24.724 2°43.728 5.6 319 1.4 100820 41
2010-11-29 09:18 51°24.73 2°43.727 6.2 326 1.4 100810 38
2010-11-29 09:19 51°24.73 2°43.725 6.5 19 1.3 100810 40
2010-11-29 09:20 51°24.715 2°43.742 6.8 22 1.2 100810 41
2010-11-29 09:21 51°24.691 2°43.746 7 255 1.3 100810 40
2010-11-29 09:22 51°24.684 2°43.739 8.7 258 1.5 100820 41
2010-11-29 09:23 51°24.681 2°43.733 5.6 22 1.5 100840 39
2010-11-29 09:24 51°24.679 2°43.727 4.7 18 1.4 100830 41
2010-11-29 09:25 51°24.675 2°43.722 5.4 21 1.4 100820 40
2010-11-29 09:26 51°24.672 2°43.717 6.2 17 1.5 100830 41
2010-11-29 09:27 51°24.67 2°43.708 7.1 20 1.5 100820 41
2010-11-29 09:28 51°24.67 2°43.699 5.5 23 1.6 100820 39
2010-11-29 09:29 51°24.672 2°43.687 7.1 24 1.6 100830 41
2010-11-29 09:30 51°24.674 2°43.672 5.8 18 1.6 100830 40
2010-11-29 09:31 51°24.66 2°43.69 8.4 319 1.6 100830 38
2010-11-29 09:32 51°24.666 2°43.756 8.2 340 1.5 100820 39
2010-11-29 09:33 51°24.677 2°43.766 5.7 353 1.4 100810 38
2010-11-29 09:34 51°24.675 2°43.75 7.6 1 1.3 100840 39
2010-11-29 09:35 51°24.674 2°43.733 6.3 18 1.4 100840 40
2010-11-29 09:36 51°24.672 2°43.72 5.3 23 1.5 100830 38
2010-11-29 09:37 51°24.668 2°43.71 5.4 35 1.6 100860 41
2010-11-29 09:38 51°24.665 2°43.702 5.6 38 1.5 100830 38
2010-11-29 09:39 51°24.664 2°43.693 5.7 38 1.4 100840 40
2010-11-29 09:40 51°24.663 2°43.682 4.1 40 1.3 100840 40
2010-11-29 09:41 51°24.664 2°43.671 3.8 41 1.3 100840 38
2010-11-29 09:42 51°24.665 2°43.659 4.4 40 1.4 100840 38
2010-11-29 09:43 51°24.654 2°43.668 5.2 45 1.3 100840 39
2010-11-29 09:44 51°24.646 2°43.689 4.4 23 1.4 100840 39
2010-11-29 09:45 51°24.643 2°43.707 3.1 19 1.4 100850 38
2010-11-29 09:46 51°24.644 2°43.742 4.2 23 1.7 100850 41
2010-11-29 09:47 51°24.648 2°43.755 6.8 23 1.6 100850 39
2010-11-29 09:48 51°24.654 2°43.715 6.5 40 1.5 100850 37
2010-11-29 09:49 51°24.649 2°43.716 5.1 36 1.4 100850 37
2010-11-29 09:50 51°24.679 2°43.672 6.8 16 1.4 100850 38
2010-11-29 09:51 51°24.709 2°43.659 5.9 19 1.3 100850 38
2010-11-29 09:52 51°24.72 2°43.646 6.6 359 1.4 100840 38
2010-11-29 09:53 51°24.745 2°43.694 6.8 323 1.4 100850 39
2010-11-29 09:54 51°24.718 2°43.747 7.1 27 1.4 100860 40
2010-11-29 09:55 51°24.69 2°43.768 6.8 22 1.4 100830 40
2010-11-29 09:56 51°24.687 2°43.758 6.6 18 1.4 100860 39
2010-11-29 09:57 51°24.683 2°43.747 6.6 21 1.4 100850 40
2010-11-29 09:58 51°24.679 2°43.734 6.2 244 1.4 100860 40
2010-11-29 09:59 51°24.677 2°43.721 4.5 253 1.4 100860 40
2010-11-29 10:00 51°24.673 2°43.711 4.7 253 1.3 100870 38
2010-11-29 10:01 51°24.667 2°43.703 5.6 22 1.4 100850 40
2010-11-29 10:02 51°24.663 2°43.695 5.2 20 1.4 100860 40
2010-11-29 10:03 51°24.659 2°43.683 6.2 251 1.6 100850 40
2010-11-29 10:04 51°24.653 2°43.673 5.5 21 1.5 100860 38
2010-11-29 10:05 51°24.643 2°43.687 4.9 317 1.4 100860 40
2010-11-29 10:06 51°24.648 2°43.734 7.1 340 1.5 100850 40
2010-11-29 10:07 51°24.671 2°43.757 5.8 350 1.4 100840 38
2010-11-29 10:08 51°24.677 2°43.748 5.4 2 1.5 100850 40
2010-11-29 10:09 51°24.674 2°43.733 4.7 25 1.4 100850 37
2010-11-29 10:10 51°24.678 2°43.712 6 24 1.4 100860 40
2010-11-29 10:11 51°24.676 2°43.692 5.9 31 1.4 100860 39
2010-11-29 10:12 51°24.674 2°43.676 5.6 37 1.3 100860 37
2010-11-29 10:13 51°24.671 2°43.659 6.7 35 1.3 100860 40
2010-11-29 10:14 51°24.667 2°43.641 5.6 32 1.2 100860 37
2010-11-29 10:15 51°24.661 2°43.626 4.6 37 1.3 100860 38
2010-11-29 10:16 51°24.657 2°43.611 7.2 43 1.3 100860 37
2010-11-29 10:17 51°24.654 2°43.593 4.5 23 1.2 100850 39
2010-11-29 10:18 51°24.679 2°43.545 4.9 30 1.1 100860 38
2010-11-29 10:19 51°24.741 2°43.525 5.3 357 1.2 100870 40
2010-11-29 10:20 51°24.853 2°43.597 6.7 344 1.1 100840 38
2010-11-29 10:21 51°24.996 2°43.758 11.5 341 1.2 100830 39
2010-11-29 10:22 51°25.145 2°43.96 9.6 344 1.2 100840 38
2010-11-29 10:23 51°25.312 2°44.179 9.7 344 1.1 100830 39
2010-11-29 10:24 51°25.476 2°44.396 11.1 343 1.1 100830 39
2010-11-29 10:25 51°25.635 2°44.601 10 342 1.1 100830 39
2010-11-29 10:26 51°25.8 2°44.821 4.8 339 1.2 100840 38
2010-11-29 10:27 51°25.955 2°45.038 10.3 342 1.2 100850 39
2010-11-29 10:28 51°26.117 2°45.262 10.5 341 1.1 100840 39
2010-11-29 10:29 51°26.272 2°45.48 9.5 346 1.1 100850 39
2010-11-29 10:30 51°26.432 2°45.703 9.3 343 1.2 100830 39
2010-11-29 10:31 51°26.59 2°45.926 10.4 341 1.1 100850 39
2010-11-29 10:32 51°26.752 2°46.151 5 341 1.2 100830 40
2010-11-29 10:33 51°26.909 2°46.369 8.7 341 1.2 100850 38
2010-11-29 10:34 51°27.071 2°46.594 9.6 343 1.2 100840 38
2010-11-29 10:35 51°27.23 2°46.812 8.3 344 1.2 100830 39
2010-11-29 10:36 51°27.386 2°47.031 4.4 344 1.1 100840 39
2010-11-29 10:37 51°27.547 2°47.257 9.3 340 1 100850 39
2010-11-29 10:38 51°27.705 2°47.475 4.3 343 1 100850 39
2010-11-29 10:39 51°27.866 2°47.699 6.9 346 1 100830 37
2010-11-29 10:40 51°28.02 2°47.915 3.6 341 1 100850 39
2010-11-29 10:41 51°28.183 2°48.14 4.1 337 1.1 100850 40
2010-11-29 10:42 51°28.341 2°48.359 9.1 344 1.1 100830 40
2010-11-29 10:43 51°28.495 2°48.573 8.1 345 1.1 100840 39
2010-11-29 10:44 51°28.655 2°48.793 4.4 345 1 100840 39
2010-11-29 10:45 51°28.812 2°49.005 4.8 342 1 100820 39
2010-11-29 10:46 51°28.977 2°49.224 9 343 1 100840 39
2010-11-29 10:47 51°29.136 2°49.436 7.6 342 0.9 100830 39
2010-11-29 10:48 51°29.3 2°49.659 5 341 1 100830 40
2010-11-29 10:49 51°29.461 2°49.88 8.5 342 0.9 100840 39
2010-11-29 10:50 51°29.622 2°50.097 8.1 341 1 100840 40
2010-11-29 10:51 51°29.783 2°50.322 8.1 346 1 100840 39
2010-11-29 10:52 51°29.947 2°50.553 4.1 339 1.1 100840 39
2010-11-29 10:53 51°30.109 2°50.781 3.7 341 1 100840 38
2010-11-29 10:54 51°30.267 2°51.001 7.7 342 1 100830 39
2010-11-29 10:55 51°30.428 2°51.226 8 338 1.1 100830 39
2010-11-29 10:56 51°30.588 2°51.452 7.3 336 1.1 100840 39
2010-11-29 10:57 51°30.75 2°51.678 9.6 339 1.1 100840 38
2010-11-29 10:58 51°30.911 2°51.909 8.9 338 1.2 100840 39
2010-11-29 10:59 51°31.043 2°52.152 7.1 346 1.2 100840 39
2010-11-29 11:00 51°31.122 2°52.277 4.5 349 1.1 100840 38
2010-11-29 11:01 51°31.175 2°52.366 5 350 1.1 100850 38
2010-11-29 11:02 51°31.223 2°52.43 4.4 338 1.1 100840 38
2010-11-29 11:03 51°31.245 2°52.465 2.4 348 1.1 100840 40
2010-11-29 11:04 51°31.245 2°52.448 1.8 351 1.2 100840 39
2010-11-29 11:05 51°31.245 2°52.428 1.6 344 1.1 100850 38
2010-11-29 11:06 51°31.243 2°52.41 0.2 338 1 100850 40
2010-11-29 11:07 51°31.241 2°52.403 1.4 336 0.9 100850 39
2010-11-29 11:08 51°31.241 2°52.408 2 341 1.1 100870 40
2010-11-29 11:09 51°31.241 2°52.409 0.2 351 1 100850 37
2010-11-29 11:10 51°31.24 2°52.404 -999 346 1 100860 39
2010-11-29 11:11 51°31.241 2°52.405 4.3 346 1.1 100850 38
2010-11-29 11:12 51°31.241 2°52.405 0.6 354 1 100840 37
2010-11-29 11:13 51°31.24 2°52.404 4.7 344 1 100850 40
2010-11-29 11:14 51°31.24 2°52.404 0.6 338 1 100850 38
2010-11-29 11:15 51°31.241 2°52.405 2.9 342 1 100850 40
2010-11-29 11:16 51°31.241 2°52.404 2.6 336 1 100860 38
2010-11-29 11:17 51°31.239 2°52.404 0.7 328 1.1 100860 38
2010-11-29 11:18 51°31.238 2°52.407 2 343 1.1 100860 39
2010-11-29 11:19 51°31.236 2°52.404 1.1 343 1.2 100860 40
2010-11-29 11:20 51°31.234 2°52.406 1.3 346 1.1 100860 37
2010-11-29 11:21 51°31.234 2°52.41 4 340 1.1 100860 39
2010-11-29 11:22 51°31.232 2°52.405 0.5 355 1 100860 38
2010-11-29 11:23 51°31.232 2°52.407 1.1 342 1.1 100860 38
2010-11-29 11:24 51°31.234 2°52.409 2.5 3 1.1 100850 39
2010-11-29 11:25 51°31.236 2°52.408 3.2 350 1.1 100850 39
2010-11-29 11:26 51°31.235 2°52.404 0.5 334 1.1 100860 38
2010-11-29 11:27 51°31.234 2°52.406 2.1 334 1.1 100850 40
2010-11-29 11:28 51°31.236 2°52.41 3 351 1.2 100850 39
2010-11-29 11:29 51°31.235 2°52.408 3.6 354 1.1 100860 38
2010-11-29 11:30 51°31.232 2°52.404 1.6 344 1.1 100870 40
2010-11-29 11:31 51°31.233 2°52.409 4.1 346 1.1 100850 39
2010-11-29 11:32 51°31.233 2°52.411 2.5 337 1 100840 40
2010-11-29 11:33 51°31.232 2°52.409 1.5 350 1 100860 38
2010-11-29 11:34 51°31.232 2°52.405 1.8 339 1 100850 40
2010-11-29 11:35 51°31.234 2°52.409 0.1 353 1 100860 37
2010-11-29 11:36 51°31.234 2°52.411 -999 353 0.9 100860 38
2010-11-29 11:37 51°31.235 2°52.409 1.5 339 1 100850 39
2010-11-29 11:38 51°31.233 2°52.405 0.1 336 1 100850 39
2010-11-29 11:39 51°31.23 2°52.407 1.7 350 1 100840 39
2010-11-29 11:40 51°31.231 2°52.413 2.1 341 1.1 100850 39
2010-11-29 11:41 51°31.234 2°52.413 2.8 350 1 100860 37
2010-11-29 11:42 51°31.234 2°52.409 1.8 352 1 100850 38
2010-11-29 11:43 51°31.235 2°52.407 3.4 351 1 100850 39
2010-11-29 11:44 51°31.233 2°52.409 3 339 1.1 100870 39
2010-11-29 11:45 51°31.231 2°52.411 1 339 1.1 100850 40
2010-11-29 11:46 51°31.231 2°52.412 1.1 333 1.1 100860 40
2010-11-29 11:47 51°31.23 2°52.41 0.2 338 1.1 100850 38
2010-11-29 11:48 51°31.229 2°52.409 1 346 1 100860 39
2010-11-29 11:49 51°31.228 2°52.409 0.3 348 1 100850 38
2010-11-29 11:50 51°31.229 2°52.411 2.5 343 1 100850 38
2010-11-29 11:51 51°31.229 2°52.412 4.6 344 1 100860 38
2010-11-29 11:52 51°31.228 2°52.407 0.7 346 1.1 100850 38
2010-11-29 11:53 51°31.23 2°52.412 0.3 347 1.1 100860 37
2010-11-29 11:54 51°31.232 2°52.412 -999 343 1 100850 38
2010-11-29 11:55 51°31.228 2°52.41 0.2 351 1 100850 38
2010-11-29 11:56 51°31.228 2°52.41 0.1 341 1.1 100850 39
2010-11-29 11:57 51°31.229 2°52.413 0.1 356 1.1 100850 39
2010-11-29 11:58 51°31.227 2°52.41 -999 349 1.1 100860 39
2010-11-29 11:59 51°31.227 2°52.413 -999 347 1.1 100840 38
2010-11-29 12:00 51°31.227 2°52.416 -999 3 1.1 100850 39
2010-11-29 12:01 51°31.224 2°52.415 -999 3 1.2 100860 39
2010-11-29 12:02 51°31.224 2°52.415 0.1 15 1.2 100850 39
2010-11-29 12:03 51°31.225 2°52.417 0.1 352 1.3 100850 39
2010-11-29 12:04 51°31.224 2°52.415 -999 354 1.3 100850 39
2010-11-29 12:05 51°31.223 2°52.414 2.7 354 1.3 100850 39
2010-11-29 12:06 51°31.225 2°52.414 0.6 350 1.4 100850 38
2010-11-29 12:07 51°31.224 2°52.412 0.3 340 1.3 100840 39
2010-11-29 12:08 51°31.224 2°52.414 1.1 2 1.3 100840 39
2010-11-29 12:09 51°31.222 2°52.415 0.6 1 1.4 100850 41
2010-11-29 12:10 51°31.224 2°52.417 0.8 1 1.4 100840 39
2010-11-29 12:11 51°31.224 2°52.416 0.3 3 1.3 100840 41
2010-11-29 12:12 51°31.224 2°52.414 0.1 3 1.4 100840 39
2010-11-29 12:13 51°31.224 2°52.413 1.6 10 1.3 100850 40
2010-11-29 12:14 51°31.224 2°52.415 1.1 2 1.2 100850 39
2010-11-29 12:15 51°31.224 2°52.417 2.7 357 1.2 100860 38
2010-11-29 12:16 51°31.222 2°52.413 0.4 1 1.2 100860 39
2010-11-29 12:17 51°31.222 2°52.415 1.2 359 1.1 100850 39
2010-11-29 12:18 51°31.223 2°52.417 0.4 12 1.1 100850 38
2010-11-29 12:19 51°31.222 2°52.416 1.7 6 1.1 100860 39
2010-11-29 12:20 51°31.221 2°52.419 3.6 3 1.2 100850 40
2010-11-29 12:21 51°31.222 2°52.422 3 8 1.2 100850 38
2010-11-29 12:22 51°31.22 2°52.42 4.1 9 1.3 100850 38
2010-11-29 12:23 51°31.221 2°52.418 4 14 1.2 100850 41
2010-11-29 12:24 51°31.223 2°52.419 2 7 1.2 100850 38
2010-11-29 12:25 51°31.222 2°52.418 3.6 -999 1.2 100850 41
2010-11-29 12:26 51°31.221 2°52.417 0.5 9 1.1 100860 38
2010-11-29 12:27 51°31.222 2°52.419 3.3 14 1.1 100850 38
2010-11-29 12:28 51°31.219 2°52.419 0.1 8 1.1 100860 38
2010-11-29 12:29 51°31.219 2°52.421 1.3 11 1.1 100840 39
2010-11-29 12:30 51°31.22 2°52.424 1.3 17 1.1 100850 39
2010-11-29 12:31 51°31.224 2°52.429 2.8 8 1.1 100860 38
2010-11-29 12:32 51°31.234 2°52.443 1.6 12 1 100850 40
2010-11-29 12:33 51°31.24 2°52.455 2.2 10 1.1 100850 39
2010-11-29 12:34 51°31.237 2°52.457 1.6 12 1.1 100840 41
2010-11-29 12:35 51°31.228 2°52.452 3.4 352 1.2 100850 40
2010-11-29 12:36 51°31.227 2°52.465 2.5 355 1.1 100840 40
2010-11-29 12:37 51°31.271 2°52.566 5.7 342 1.2 100840 38
2010-11-29 12:38 51°31.362 2°52.775 7.9 341 1.1 100840 40
2010-11-29 12:39 51°31.475 2°53.034 7.7 340 1 100830 38
2010-11-29 12:40 51°31.593 2°53.296 8.2 342 1 100840 40
2010-11-29 12:41 51°31.709 2°53.558 8.1 344 1 100830 39
2010-11-29 12:42 51°31.826 2°53.82 8.6 344 1 100830 40
2010-11-29 12:43 51°31.942 2°54.083 7.6 341 1 100830 38
2010-11-29 12:44 51°32.059 2°54.347 7.6 342 0.9 100830 40
2010-11-29 12:45 51°32.173 2°54.607 8 345 0.9 100840 38
2010-11-29 12:46 51°32.286 2°54.872 8.4 345 0.8 100810 38
2010-11-29 12:47 51°32.401 2°55.138 8.1 339 0.8 100830 40
2010-11-29 12:48 51°32.504 2°55.385 5.9 346 0.7 100840 40
2010-11-29 12:49 51°32.571 2°55.547 4.6 349 0.7 100840 39
2010-11-29 12:50 51°32.619 2°55.559 2.9 35 0.7 100840 38
2010-11-29 12:51 51°32.631 2°55.519 0.1 45 0.7 100850 40
2010-11-29 12:52 51°32.632 2°55.486 -999 40 0.7 100850 39
2010-11-29 12:53 51°32.628 2°55.456 -999 40 0.7 100850 40
2010-11-29 12:54 51°32.618 2°55.429 0.2 35 0.7 100840 41
2010-11-29 12:55 51°32.605 2°55.403 1.2 33 0.8 100840 39
2010-11-29 12:56 51°32.589 2°55.377 -999 39 0.8 100850 40
2010-11-29 12:57 51°32.57 2°55.351 3.3 41 0.8 100850 39
2010-11-29 12:58 51°32.547 2°55.325 2.8 20 0.8 100850 38
2010-11-29 12:59 51°32.564 2°55.292 3.7 21 0.7 100850 41
2010-11-29 13:00 51°32.602 2°55.326 3.7 4 0.6 100850 39
2010-11-29 13:01 51°32.654 2°55.384 3.1 4 0.6 100850 38
2010-11-29 13:02 51°32.694 2°55.407 1.2 9 0.6 100840 41
2010-11-29 13:03 51°32.715 2°55.429 4.6 6 0.6 100840 38
2010-11-29 13:04 51°32.715 2°55.464 4 349 0.6 100830 39
2010-11-29 13:05 51°32.705 2°55.495 1.8 340 0.6 100840 37
2010-11-29 13:06 51°32.685 2°55.523 2.7 340 0.6 100840 39
2010-11-29 13:07 51°32.662 2°55.543 5 335 0.7 100830 38
2010-11-29 13:08 51°32.645 2°55.542 1.2 338 0.7 100840 40
2010-11-29 13:09 51°32.623 2°55.536 4.3 348 0.7 100830 39
2010-11-29 13:10 51°32.606 2°55.521 4.8 354 0.8 100840 39
2010-11-29 13:11 51°32.588 2°55.498 0.9 5 0.6 100840 38
2010-11-29 13:12 51°32.57 2°55.47 3.7 360 0.6 100840 38
2010-11-29 13:13 51°32.552 2°55.438 0.1 355 0.7 100850 38
2010-11-29 13:14 51°32.529 2°55.403 3.9 5 0.6 100830 39
2010-11-29 13:15 51°32.508 2°55.364 4.4 6 0.7 100840 38
2010-11-29 13:16 51°32.487 2°55.321 1.4 8 0.6 100840 38
2010-11-29 13:17 51°32.463 2°55.277 4.1 16 0.7 100830 38
2010-11-29 13:18 51°32.435 2°55.234 4.7 16 0.7 100850 40
2010-11-29 13:19 51°32.414 2°55.199 4.5 12 0.7 100840 38
2010-11-29 13:20 51°32.432 2°55.217 4.9 5 0.6 100830 38
2010-11-29 13:21 51°32.487 2°55.287 4.8 356 0.6 100840 38
2010-11-29 13:22 51°32.548 2°55.395 5.2 2 0.5 100820 38
2010-11-29 13:23 51°32.628 2°55.481 5.9 351 0.6 100820 40
2010-11-29 13:24 51°32.695 2°55.538 4.5 18 0.7 100840 38
2010-11-29 13:25 51°32.72 2°55.52 3.6 31 0.7 100830 40
2010-11-29 13:26 51°32.728 2°55.49 -999 37 0.7 100850 39
2010-11-29 13:27 51°32.725 2°55.462 3.8 27 0.7 100840 40
2010-11-29 13:28 51°32.712 2°55.434 3.6 39 0.7 100840 38
2010-11-29 13:29 51°32.694 2°55.405 1.9 34 0.6 100840 38
2010-11-29 13:30 51°32.674 2°55.375 1.9 36 0.6 100840 37
2010-11-29 13:31 51°32.647 2°55.343 3 34 0.5 100830 37
2010-11-29 13:32 51°32.62 2°55.313 1.5 37 0.5 100840 40
2010-11-29 13:33 51°32.59 2°55.284 5 41 0.7 100840 38
2010-11-29 13:34 51°32.562 2°55.255 4.7 24 0.6 100840 38
2010-11-29 13:35 51°32.534 2°55.23 4.4 27 0.6 100840 40
2010-11-29 13:36 51°32.527 2°55.195 3.2 21 0.5 100840 40
2010-11-29 13:37 51°32.553 2°55.202 4.5 354 0.6 100840 39
2010-11-29 13:38 51°32.667 2°55.306 6.5 343 0.5 100830 40
2010-11-29 13:39 51°32.732 2°55.54 6.5 344 0.5 100820 39
2010-11-29 13:40 51°32.683 2°55.669 5.1 329 0.4 100830 37
2010-11-29 13:41 51°32.606 2°55.66 2.2 18 0.4 100830 38
2010-11-29 13:42 51°32.568 2°55.511 -999 26 0.4 100840 39
2010-11-29 13:43 51°32.583 2°55.364 0.1 22 0.5 100850 39
2010-11-29 13:44 51°32.598 2°55.202 0.3 266 0.6 100850 39
2010-11-29 13:45 51°32.585 2°55.08 0.9 20 0.7 100850 37
2010-11-29 13:46 51°32.558 2°54.992 2.1 21 0.6 100860 40
2010-11-29 13:47 51°32.529 2°54.922 1.6 266 0.6 100840 40
2010-11-29 13:48 51°32.499 2°54.865 2.5 269 0.6 100850 41
2010-11-29 13:49 51°32.461 2°54.782 1.9 265 0.6 100840 38
2010-11-29 13:50 51°32.492 2°54.636 2.7 26 0.7 100850 40
2010-11-29 13:51 51°32.553 2°54.662 5.5 348 0.6 100850 40
2010-11-29 13:52 51°32.606 2°54.803 6.9 350 0.6 100810 39
2010-11-29 13:53 51°32.687 2°54.997 5.9 348 0.5 100820 40
2010-11-29 13:54 51°32.739 2°55.228 8.3 339 0.5 100810 39
2010-11-29 13:55 51°32.756 2°55.45 5.7 341 0.6 100820 38
2010-11-29 13:56 51°32.716 2°55.575 5.2 328 0.6 100840 39
2010-11-29 13:57 51°32.653 2°55.585 3.4 21 0.5 100830 37
2010-11-29 13:58 51°32.604 2°55.555 3 19 0.5 100840 37
2010-11-29 13:59 51°32.564 2°55.524 5 19 0.5 100840 37
2010-11-29 14:00 51°32.527 2°55.493 4.2 19 0.5 100840 40
2010-11-29 14:01 51°32.494 2°55.464 3.9 24 0.6 100830 39
2010-11-29 14:02 51°32.455 2°55.436 2.3 25 0.6 100840 37
2010-11-29 14:03 51°32.415 2°55.423 3.3 324 0.5 100840 37
2010-11-29 14:04 51°32.38 2°55.423 2.4 340 0.5 100840 38
2010-11-29 14:05 51°32.358 2°55.442 5.3 356 0.5 100830 38
2010-11-29 14:06 51°32.357 2°55.451 3.1 21 0.6 100830 37
2010-11-29 14:07 51°32.374 2°55.44 1 19 0.6 100840 38
2010-11-29 14:08 51°32.413 2°55.437 2.5 7 0.5 100840 38
2010-11-29 14:09 51°32.453 2°55.465 3.8 357 0.5 100830 37
2010-11-29 14:10 51°32.501 2°55.49 2.7 355 0.4 100830 38
2010-11-29 14:11 51°32.539 2°55.533 4.1 11 0.4 100840 37
2010-11-29 14:12 51°32.563 2°55.538 3.4 12 0.4 100830 38
2010-11-29 14:13 51°32.575 2°55.524 0.8 9 0.5 100830 38
2010-11-29 14:14 51°32.585 2°55.512 -999 7 0.5 100840 38
2010-11-29 14:15 51°32.595 2°55.49 2.5 26 0.6 100840 39
2010-11-29 14:16 51°32.631 2°55.454 0.1 18 0.6 100850 38
2010-11-29 14:17 51°32.649 2°55.396 -999 33 0.6 100830 38
2010-11-29 14:18 51°32.651 2°55.333 -999 22 0.5 100840 38
2010-11-29 14:19 51°32.648 2°55.276 -999 22 0.6 100830 39
2010-11-29 14:20 51°32.639 2°55.233 0.1 22 0.7 100840 38
2010-11-29 14:21 51°32.626 2°55.197 0.1 22 0.7 100840 38
2010-11-29 14:22 51°32.609 2°55.163 -999 22 0.7 100840 38
2010-11-29 14:23 51°32.589 2°55.132 1.9 34 0.7 100840 39
2010-11-29 14:24 51°32.566 2°55.102 -999 37 0.6 100840 38
2010-11-29 14:25 51°32.548 2°55.063 -999 22 0.7 100830 38
2010-11-29 14:26 51°32.529 2°55.024 -999 39 0.7 100840 38
2010-11-29 14:27 51°32.51 2°54.986 1.2 37 0.7 100840 40
2010-11-29 14:28 51°32.535 2°54.944 3.6 1 0.7 100840 37
2010-11-29 14:29 51°32.575 2°55.024 4.2 344 0.7 100830 38
2010-11-29 14:30 51°32.563 2°55.174 6.2 323 0.7 100830 37
2010-11-29 14:31 51°32.42 2°55.187 4.9 316 0.7 100830 39
2010-11-29 14:32 51°32.216 2°55.145 5.9 22 0.7 100830 37
2010-11-29 14:33 51°31.98 2°55.095 6.6 317 0.7 100820 37
2010-11-29 14:34 51°31.746 2°55.037 7.8 315 0.7 100820 39
2010-11-29 14:35 51°31.506 2°54.989 8.5 316 0.7 100820 37
2010-11-29 14:36 51°31.268 2°54.935 7.4 324 0.7 100830 39
2010-11-29 14:37 51°31.028 2°54.894 6.9 315 0.7 100820 38
2010-11-29 14:38 51°30.791 2°54.838 8.1 21 0.7 100830 39
2010-11-29 14:39 51°30.558 2°54.777 7.3 315 0.8 100840 37
2010-11-29 14:40 51°30.333 2°54.714 7.3 317 0.8 100830 39
2010-11-29 14:41 51°30.105 2°54.649 6 321 0.8 100830 39
2010-11-29 14:42 51°29.877 2°54.596 7.1 317 0.8 100840 37
2010-11-29 14:43 51°29.645 2°54.532 7.3 320 0.8 100830 37
2010-11-29 14:44 51°29.414 2°54.475 6.7 317 0.8 100820 37
2010-11-29 14:45 51°29.183 2°54.425 9.1 320 0.7 100840 38
2010-11-29 14:46 51°28.952 2°54.376 7.9 318 0.7 100830 38
2010-11-29 14:47 51°28.724 2°54.34 7.5 19 0.7 100840 37
2010-11-29 14:48 51°28.493 2°54.288 7.6 320 0.7 100840 39
2010-11-29 14:49 51°28.263 2°54.236 6.5 316 0.8 100830 38
2010-11-29 14:50 51°28.032 2°54.179 6.6 18 0.7 100850 38
2010-11-29 14:51 51°27.798 2°54.126 6.4 23 0.7 100840 37
2010-11-29 14:52 51°27.57 2°54.077 7.1 316 0.8 100830 39
2010-11-29 14:53 51°27.344 2°54.027 6.3 316 0.7 100840 38
2010-11-29 14:54 51°27.118 2°54 8.1 317 0.7 100850 38
2010-11-29 14:55 51°26.891 2°54.002 8.4 316 0.7 100840 38
2010-11-29 14:56 51°26.665 2°53.972 8.6 19 0.7 100850 38
2010-11-29 14:57 51°26.437 2°53.946 7.6 19 0.7 100840 36
2010-11-29 14:58 51°26.212 2°53.933 7.5 317 0.7 100840 38
2010-11-29 14:59 51°25.983 2°53.926 6.2 317 0.7 100850 38
2010-11-29 15:00 51°25.756 2°53.9 5.5 22 0.7 100840 37
2010-11-29 15:01 51°25.525 2°53.847 7.9 20 0.8 100850 38
2010-11-29 15:02 51°25.295 2°53.806 6.7 17 0.7 100840 37
2010-11-29 15:03 51°25.064 2°53.758 7 315 0.8 100840 37
2010-11-29 15:04 51°24.833 2°53.706 8.4 19 0.8 100850 37
2010-11-29 15:05 51°24.604 2°53.654 8.9 24 0.7 100840 38
2010-11-29 15:06 51°24.372 2°53.601 7.6 316 0.7 100840 38
2010-11-29 15:07 51°24.146 2°53.548 9 18 0.7 100850 39
2010-11-29 15:08 51°23.919 2°53.484 8.9 24 0.7 100840 39
2010-11-29 15:09 51°23.694 2°53.412 8.8 24 0.6 100840 37
2010-11-29 15:10 51°23.472 2°53.334 9 318 0.6 100840 39
2010-11-29 15:11 51°23.249 2°53.246 10.8 318 0.5 100840 38
2010-11-29 15:12 51°23.022 2°53.166 8.2 322 0.4 100840 37
2010-11-29 15:13 51°22.797 2°53.094 9.4 320 0.4 100840 37
2010-11-29 15:14 51°22.574 2°53.012 9.5 318 0.3 100840 38
2010-11-29 15:15 51°22.352 2°52.934 8.3 318 0.2 100840 37
2010-11-29 15:16 51°22.132 2°52.859 7.7 320 0.1 100850 37
2010-11-29 15:17 51°21.912 2°52.786 7.6 319 0.1 100840 38
2010-11-29 15:18 51°21.69 2°52.728 10.4 321 -999 100850 37
2010-11-29 15:19 51°21.466 2°52.709 8.6 322 -999 100850 39
2010-11-29 15:20 51°21.24 2°52.692 8.6 321 -999 100850 38
2010-11-29 15:21 51°21.015 2°52.673 8.2 319 -0.1 100850 38
2010-11-29 15:22 51°20.795 2°52.652 8.6 323 -0.2 100850 37
2010-11-29 15:23 51°20.571 2°52.632 10.2 315 -0.2 100850 37
2010-11-29 15:24 51°20.35 2°52.605 8.1 319 -0.3 100850 37
2010-11-29 15:25 51°20.13 2°52.583 9.7 318 -0.2 100850 38
2010-11-29 15:26 51°19.907 2°52.566 10 315 -0.4 100850 38
2010-11-29 15:27 51°19.684 2°52.55 9.6 320 -0.4 100860 36
2010-11-29 15:28 51°19.462 2°52.525 11.2 24 -0.4 100850 38
2010-11-29 15:29 51°19.237 2°52.508 9.3 319 -0.4 100850 37
2010-11-29 15:30 51°19.011 2°52.495 7.9 322 -0.5 100860 36
2010-11-29 15:31 51°18.786 2°52.496 10.1 320 -0.5 100860 38
2010-11-29 15:32 51°18.559 2°52.491 9.3 322 -0.5 100860 38
2010-11-29 15:33 51°18.335 2°52.477 9.9 319 -0.5 100860 38
2010-11-29 15:34 51°18.111 2°52.469 9 316 -0.6 100860 38
2010-11-29 15:35 51°17.887 2°52.463 9.3 317 -0.6 100860 37
2010-11-29 15:36 51°17.663 2°52.473 12.5 319 -0.7 100860 37
2010-11-29 15:37 51°17.44 2°52.511 10.8 321 -0.7 100870 37
2010-11-29 15:38 51°17.224 2°52.589 10.6 323 -0.7 100870 38
2010-11-29 15:39 51°17.016 2°52.702 10.6 319 -0.7 100870 37
2010-11-29 15:40 51°16.816 2°52.844 10.3 325 -0.6 100870 38
2010-11-29 15:41 51°16.614 2°52.987 8 322 -0.7 100870 38
2010-11-29 15:42 51°16.412 2°53.13 10.2 319 -0.7 100870 37
2010-11-29 15:43 51°16.215 2°53.272 12.7 323 -0.7 100880 38
2010-11-29 15:44 51°16.018 2°53.407 9.4 322 -0.8 100880 36
2010-11-29 15:45 51°15.825 2°53.55 8.9 325 -0.8 100890 35
2010-11-29 15:46 51°15.645 2°53.737 10.3 329 -0.8 100880 37
2010-11-29 15:47 51°15.481 2°53.955 9.2 326 -0.8 100890 37
2010-11-29 15:48 51°15.297 2°54.127 9.8 327 -0.9 100900 36
2010-11-29 15:49 51°15.116 2°54.313 9.8 324 -0.9 100900 36
2010-11-29 15:50 51°14.942 2°54.513 8.7 330 -1 100890 38
2010-11-29 15:51 51°14.78 2°54.739 10.1 329 -1 100890 36
2010-11-29 15:52 51°14.602 2°54.935 9.8 325 -1 100890 37
2010-11-29 15:53 51°14.419 2°55.115 9.7 331 -1 100890 34
2010-11-29 15:54 51°14.252 2°55.293 8.5 328 -1 100890 37
2010-11-29 15:55 51°14.112 2°55.425 7.3 326 -1.1 100890 36
2010-11-29 15:56 51°13.989 2°55.516 7.6 321 -1.1 100880 36
2010-11-29 15:57 51°13.87 2°55.599 5.8 319 -1.1 100890 38
2010-11-29 15:58 51°13.777 2°55.687 5.4 324 -1.1 100890 37
2010-11-29 15:59 51°13.777 2°55.687 5.3 328 -1.1 100890 36
2010-11-29 16:00 51°13.667 2°55.924 4 331 -1.1 100900 35
2010-11-29 16:01 51°13.66 2°55.96 1 344 -1.2 100900 35
2010-11-29 16:02 51°13.661 2°55.962 2.7 338 -1.1 100900 38
2010-11-29 16:03 51°13.661 2°55.961 0.8 326 -1.1 100910 36
2010-11-29 16:04 51°13.662 2°55.961 0.1 332 -1.1 100910 37